Date String (YYYY-MM-DD hh:mm:ss) UTC,Instrument flags,absolute air pressure of the measurement (hPa),sample flow rate (lpm),inlet stack bypass flow (lpm),air temperature of the measurement (°C),ambient temperature measured by the external sensor (°C),aerosol sample conditioner tube jacket temperature (°C),OPC LED temperature (°C),internal box temperature (°C),relative humidity of the measurement (%),span deviation,mass concentration of particles derived from Lorenz-Mie calculation of OPC scattering (μg/m³),mass concentration of particles derived from Lorenz-Mie calculation of OPC scattering (μg/m³),mass concentration of particles derived from Lorenz-Mie calculation of OPC scattering (μg/m³)
DateTimeUTC,F1_M11,P_M11,Q1_M11,Q2_M11,T1_M11,T2_M11,T3_M11,T4_M11,T5_M11,U1_M11,ZSPAN_M11,X0_M11,X2_M11,X1_M11
2024-04-06 07:00:00,SystemResetWarning,0812.1,5.00,000.00,023.9,022.7,000.0,032.6,025.6,013.9,0000.0,0018.63,0003.95,0001.57
2024-04-06 07:01:00,SystemResetWarning,0812.1,5.00,000.00,023.9,022.7,000.0,032.6,025.6,013.9,0000.0,0017.54,0004.02,0001.60
2024-04-06 07:02:00,SystemResetWarning,0812.0,5.00,000.00,023.9,022.7,000.0,032.6,025.6,013.9,0000.0,0017.81,0004.11,0001.60
2024-04-06 07:03:00,SystemResetWarning,0812.0,5.00,000.00,023.9,022.7,000.0,032.6,025.6,013.8,0000.0,0018.08,0004.09,0001.59
2024-04-06 07:04:00,SystemResetWarning,0811.8,5.00,000.00,023.9,022.7,000.0,032.6,025.6,013.8,0000.0,0018.29,0004.16,0001.60
2024-04-06 07:05:00,SystemResetWarning,0811.7,5.00,000.00,023.9,022.7,000.0,032.6,025.6,014.0,0000.0,0018.55,0004.17,0001.60
2024-04-06 07:06:00,SystemResetWarning,0811.7,5.00,000.00,023.9,022.7,000.0,032.6,025.6,014.1,0000.0,0019.36,0004.16,0001.60
2024-04-06 07:07:00,SystemResetWarning,0811.6,5.00,000.00,023.8,022.7,000.0,032.5,025.6,014.1,0000.0,0020.53,0004.11,0001.60
2024-04-06 07:08:00,SystemResetWarning,0811.6,5.00,000.00,023.8,022.7,000.0,032.5,025.6,014.1,0000.0,0020.57,0004.10,0001.59
2024-04-06 07:09:00,SystemResetWarning,0811.5,5.01,000.00,023.8,022.7,000.0,032.5,025.6,014.1,0000.0,0020.47,0004.07,0001.59
2024-04-06 07:10:00,SystemResetWarning,0811.4,5.01,000.00,023.8,022.8,000.0,032.5,025.6,014.1,0000.0,0020.78,0004.07,0001.59
2024-04-06 07:11:00,SystemResetWarning,0811.5,5.00,000.00,023.8,022.8,000.0,032.5,025.6,014.1,0000.0,0021.68,0004.10,0001.58
2024-04-06 07:12:00,SystemResetWarning,0811.3,5.00,000.00,023.8,022.8,000.0,032.5,025.6,013.9,0000.0,0021.11,0004.04,0001.57
2024-04-06 07:13:00,SystemResetWarning,0811.4,5.00,000.00,023.8,022.8,000.0,032.5,025.6,013.8,0000.0,0020.30,0004.01,0001.58
2024-04-06 07:14:00,SystemResetWarning,0811.5,5.00,000.00,023.8,022.8,000.0,032.5,025.6,014.0,0000.0,0021.63,0004.07,0001.58
2024-04-06 07:15:00,SystemResetWarning,0811.5,5.00,000.00,023.8,022.8,000.0,032.5,025.6,014.1,0000.0,0022.91,0004.04,0001.58
2024-04-06 07:16:00,SystemResetWarning,0811.5,5.00,000.00,023.8,022.8,000.0,032.5,025.6,014.2,0000.0,0023.38,0004.09,0001.58
2024-04-06 07:17:00,SystemResetWarning,0811.5,5.00,000.00,023.8,022.8,000.0,032.5,025.6,014.3,0000.0,0023.51,0004.18,0001.59
2024-04-06 07:18:00,SystemResetWarning,0811.5,5.01,000.00,023.8,022.8,000.0,032.5,025.6,014.2,0000.0,0022.32,0004.23,0001.60
2024-04-06 07:19:00,SystemResetWarning,0811.6,5.01,000.00,023.8,022.7,000.0,032.5,025.5,014.2,0000.0,0022.00,0004.25,0001.62
2024-04-06 07:20:00,SystemResetWarning,0811.6,5.00,000.00,023.8,022.7,000.0,032.5,025.5,014.3,0000.0,0021.07,0004.25,0001.62
2024-04-06 07:21:00,SystemResetWarning,0811.7,5.00,000.00,023.8,022.7,000.0,032.4,025.5,014.4,0000.0,0020.23,0004.25,0001.61
2024-04-06 07:22:00,SystemResetWarning,0811.6,5.00,000.00,023.8,022.7,000.0,032.4,025.5,014.4,0000.0,0019.07,0004.22,0001.61
2024-04-06 07:23:00,SystemResetWarning,0811.7,4.99,000.00,023.8,022.7,000.0,032.4,025.5,014.4,0000.0,0020.62,0004.23,0001.62
2024-04-06 07:24:00,SystemResetWarning,0811.6,5.00,000.00,023.7,022.6,000.0,032.4,025.5,014.4,0000.0,0022.58,0004.20,0001.60
2024-04-06 07:25:00,SystemResetWarning,0811.6,5.00,000.00,023.7,022.6,000.0,032.4,025.5,014.4,0000.0,0021.86,0004.19,0001.61
2024-04-06 07:26:00,SystemResetWarning,0811.4,4.99,000.00,023.7,022.6,000.0,032.4,025.5,014.5,0000.0,0020.97,0004.18,0001.63
2024-04-06 07:27:00,SystemResetWarning,0811.3,5.02,000.00,023.7,022.6,000.0,032.4,025.5,014.5,0000.0,0021.26,0004.14,0001.63
2024-04-06 07:28:00,SystemResetWarning,0811.5,5.00,000.00,023.7,022.6,000.0,032.4,025.5,014.6,0000.0,0021.62,0004.11,0001.63
2024-04-06 07:29:00,SystemResetWarning,0811.4,4.99,000.00,023.7,022.6,000.0,032.4,025.5,014.7,0000.0,0022.09,0004.03,0001.62
2024-04-06 07:30:00,SystemResetWarning,0811.2,4.99,000.00,023.7,022.6,000.0,032.4,025.5,014.7,0000.0,0023.40,0004.06,0001.60
2024-04-06 07:31:00,SystemResetWarning,0811.1,5.00,000.00,023.7,022.6,000.0,032.4,025.5,014.7,0000.0,0025.26,0004.12,0001.61
2024-04-06 07:32:00,SystemResetWarning,0811.2,5.00,000.00,023.7,022.6,000.0,032.4,025.5,014.6,0000.0,0025.75,0004.14,0001.60
2024-04-06 07:33:00,SystemResetWarning,0811.1,5.00,000.00,023.7,022.6,000.0,032.3,025.5,014.6,0000.0,0026.57,0004.18,0001.61
2024-04-06 07:34:00,SystemResetWarning,0811.2,5.01,000.00,023.7,022.6,000.0,032.3,025.5,014.6,0000.0,0026.64,0004.24,0001.61
2024-04-06 07:35:00,SystemResetWarning,0811.2,5.00,000.00,023.7,022.7,000.0,032.3,025.5,014.6,0000.0,0026.32,0004.31,0001.63
2024-04-06 07:36:00,SystemResetWarning,0811.2,5.01,000.00,023.7,022.6,000.0,032.3,025.5,014.7,0000.0,0026.18,0004.35,0001.64
2024-04-06 07:37:00,SystemResetWarning,0811.1,5.00,000.00,023.7,022.7,000.0,032.3,025.5,014.7,0000.0,0026.83,0004.44,0001.64
2024-04-06 07:38:00,SystemResetWarning,0811.1,4.99,000.00,023.7,022.7,000.0,032.3,025.5,014.9,0000.0,0027.00,0004.46,0001.66
2024-04-06 07:39:00,SystemResetWarning,0811.1,5.00,000.00,023.7,022.6,000.0,032.3,025.5,014.8,0000.0,0026.80,0004.47,0001.66
2024-04-06 07:40:00,SystemResetWarning,0811.1,5.00,000.00,023.7,022.6,000.0,032.3,025.5,014.9,0000.0,0028.38,0004.51,0001.67
2024-04-06 07:41:00,SystemResetWarning,0811.0,5.00,000.00,023.6,022.6,000.0,032.3,025.5,014.9,0000.0,0027.40,0004.50,0001.68
2024-04-06 07:42:00,SystemResetWarning,0811.0,5.00,000.00,023.7,022.6,000.0,032.3,025.5,015.0,0000.0,0026.07,0004.52,0001.71
2024-04-06 07:43:00,SystemResetWarning,0811.0,5.00,000.00,023.7,022.6,000.0,032.3,025.5,015.0,0000.0,0025.72,0004.52,0001.72
2024-04-06 07:44:00,SystemResetWarning,0810.9,5.00,000.00,023.6,022.6,000.0,032.3,025.5,015.1,0000.0,0024.53,0004.51,0001.72
2024-04-06 07:45:00,SystemResetWarning,0810.8,5.00,000.00,023.6,022.7,000.0,032.3,025.5,015.1,0000.0,0024.57,0004.50,0001.72
2024-04-06 07:46:00,SystemResetWarning,0810.9,5.00,000.00,023.6,022.7,000.0,032.3,025.5,014.9,0000.0,0023.01,0004.51,0001.70
2024-04-06 07:47:00,SystemResetWarning,0810.9,4.99,000.00,023.6,022.6,000.0,032.3,025.5,014.8,0000.0,0023.93,0004.54,0001.70
2024-04-06 07:48:00,SystemResetWarning,0810.8,5.01,000.00,023.6,022.6,000.0,032.3,025.5,014.9,0000.0,0023.74,0004.57,0001.70
2024-04-06 07:49:00,SystemResetWarning,0810.8,5.00,000.00,023.6,022.6,000.0,032.3,025.5,014.5,0000.0,0022.82,0004.56,0001.68
2024-04-06 07:50:00,SystemResetWarning,0810.8,4.99,000.00,023.6,022.6,000.0,032.3,025.4,014.8,0000.0,0023.32,0004.55,0001.68
2024-04-06 07:51:00,SystemResetWarning,0810.8,4.99,000.00,023.6,022.6,000.0,032.3,025.4,015.1,0000.0,0022.59,0004.59,0001.70
2024-04-06 07:52:00,SystemResetWarning,0810.8,4.99,000.00,023.6,022.6,000.0,032.3,025.4,015.3,0000.0,0023.11,0004.65,0001.71
2024-04-06 07:53:00,SystemResetWarning,0810.8,5.00,000.00,023.6,022.6,000.0,032.3,025.4,015.2,0000.0,0023.44,0004.62,0001.70
2024-04-06 07:54:00,SystemResetWarning,0810.8,5.02,000.00,023.6,022.5,000.0,032.2,025.4,015.3,0000.0,0025.26,0004.65,0001.70
2024-04-06 07:55:00,SystemResetWarning,0810.9,4.99,000.00,023.6,022.5,000.0,032.2,025.3,015.3,0000.0,0027.32,0004.71,0001.73
2024-04-06 07:56:00,SystemResetWarning,0810.9,4.98,000.00,023.6,022.5,000.0,032.2,025.4,015.5,0000.0,0027.49,0004.74,0001.74
2024-04-06 07:57:00,SystemResetWarning,0810.9,5.00,000.00,023.6,022.5,000.0,032.2,025.3,015.9,0000.0,0028.36,0004.78,0001.74
2024-04-06 07:58:00,SystemResetWarning,0810.9,5.01,000.00,023.6,022.5,000.0,032.2,025.3,015.6,0000.0,0028.68,0004.82,0001.76
2024-04-06 07:59:00,SystemResetWarning,0810.9,5.00,000.00,023.5,022.5,000.0,032.2,025.3,015.5,0000.0,0028.33,0004.76,0001.77
